Location: Dennehotso
(36.8461°N, 109.8435°W)
Time: 23:22:40
(UTC+00:00)

Envisat - Pass Details

Date: 05 March 2021
Orbit: 764 x 766 km, 98.1° (Epoch: 12 April)

Event Time Altitude Azimuth Distance (km) Brightness Sun altitude
Rises 12:07:46 0° 25° (NNE) 3,237 6.7 -20.1°
Reaches altitude 10° 12:10:24 10° 37° (NE) 2,306 6.1 -19.6°
Maximum altitude 12:14:43 28° 96° (E) 1,419 5.1 -18.7°
Drops below altitude 10° 12:19:00 10° 154° (SSE) 2,292 5.7 -17.8°
Sets 12:21:36 0° 166° (SSE) 3,213 6.3 -17.3°
